Regional Weather Roundup
Issued by NWS

Home | Current Version | Previous Version | Graphics & Text | Print | Product List | Glossary On
Versions: 1 2 3 4 5 6 7 8 9 10 11 12 13 14 15 16 17 18 19 20 21 22 23 24 25 26 27 28 29 30 31 32 33 34 35 36 37 38 39 40 41 42 43 44 45 46 47 48 49 50
000
ASUS45 KBOI 271210
RWRID
WEATHER ROUNDUP FOR IDAHO
NATIONAL WEATHER SERVICE BOISE ID
500 AM MST TUE JAN 27 2015

NOTE: "FAIR" INDICATES FEW OR NO CLOUDS BELOW 12000 FEET
WITH NO SIGNIFICANT WEATHER AND/OR OBSTRUCTIONS TO VISIBILITY

IDZ012-014-271300-
SOUTHWEST IDAHO


CITY           SKY/WX    TMP DP  RH WIND       PRES   REMARKS
BOISE          PTCLDY    28  27  93 CALM      30.09F FOG
CALDWELL       CLOUDY    28  23  80 CALM      30.13F VSB 1/4
MOUNTAIN HOME  FOG       28  28 100 E3        30.09S VSB 1/4
$$

IDZ016-017-271300-
SOUTHCENTRAL IDAHO


CITY           SKY/WX    TMP DP  RH WIND       PRES   REMARKS
BURLEY         PTCLDY    34  30  85 E12       30.06F WCI  25
JEROME         PTCLDY    35  30  82 NE15      30.08S WCI  25
TWIN FALLS     PTCLDY    31  27  85 CALM      30.07S
$$

IDZ019>023-271300-
SOUTHEAST IDAHO


CITY           SKY/WX    TMP DP  RH WIND       PRES   REMARKS
IDAHO FALLS    PTCLDY    25  22  88 N6        30.13F WCI  18
POCATELLO      CLEAR     29  28  96 NE5       30.12F WCI  24
REXBURG        PTCLDY    22  16  78 NE5       30.14F WCI  16
$$

IDZ006-010-011-018-031-032-271300-
CENTRAL IDAHO MOUNTAINS


CITY           SKY/WX    TMP DP  RH WIND       PRES   REMARKS
MCCALL         PTCLDY    21  18  88 CALM      30.06F
HAILEY         PTCLDY    32  27  80 NW14      30.13F WCI  22
STANLEY          N/A     11   7  84 CALM      30.16F
SALMON         CLOUDY   N/A N/A N/A CALM      30.16F VSB 1/2
CHALLIS        MOCLDY    24  23  96 CALM      30.13F
$$

IDZ002-004-006-007-026-271300-
NORTHERN IDAHO


CITY           SKY/WX    TMP DP  RH WIND       PRES   REMARKS
LEWISTON       PTCLDY    42  36  79 E10       30.00F
LOWELL           N/A     35  33  92 CALM      30.12S
COEUR D`ALENE  CLEAR     28  25  86 NE7       29.99F WCI  21
MULLAN PASS    PTCLDY    43  24  47 SW8       30.03F
$$



USA.gov is the U.S. government's official web portal to all federal, state and local government web resources and services.